period_start,C,m1,H,J0,J1,J2,J3,J4,J5,JA,JB,JC,JD,JJ,JK,JN,#
2013-10-05 00:00:59,0.00,0.23,0.00,20.39,23.45,26.04,5.98,29.60,1005.87,2062.99,3470.97,3302.00,3582.14,349.99,323.41,19.28,0000 0000 0000 0000 000000
2013-10-05 00:12:11,0.00,0.23,0.00,20.40,23.44,26.15,5.96,29.75,1005.87,2062.99,3470.93,3302.00,3582.09,349.37,323.28,19.29,0000 0000 0000 0000 000000
2013-10-05 00:13:12,0.00,0.23,0.00,20.41,23.44,26.10,6.02,29.71,1005.87,2062.99,3470.78,3302.00,3582.05,350.88,324.18,19.29,0000 0000 0000 0000 000000
2013-10-05 00:14:12,0.01,0.23,0.00,20.41,23.44,26.02,5.93,29.67,1005.87,2062.99,3470.55,3302.00,3582.04,349.16,322.59,19.30,0000 0000 0000 0000 000000
2013-10-05 00:15:12,0.03,0.23,0.00,20.41,23.44,26.10,5.96,29.58,1005.87,2062.99,3470.44,3302.00,3582.04,349.80,323.03,19.30,0000 0000 0000 0000 000000
2013-10-05 00:16:12,0.01,0.23,0.00,20.41,23.44,26.13,6.08,29.92,1005.86,2062.99,3470.24,3301.99,3582.02,349.64,323.03,19.31,0000 0000 0000 0000 000000
2013-10-05 00:17:12,0.03,0.23,0.00,20.42,23.44,26.12,6.03,29.71,1005.87,2062.99,3470.13,3301.97,3582.01,350.07,323.20,19.32,0000 0000 0000 0000 000000
2013-10-05 00:18:13,0.01,0.23,0.00,20.42,23.44,26.14,5.96,29.63,1005.87,2062.99,3470.13,3301.97,3582.03,349.73,323.11,19.32,0000 0000 0000 0000 000000
2013-10-05 00:19:13,0.00,0.23,0.00,20.42,23.44,26.14,5.86,29.71,1005.87,2062.99,3470.10,3301.99,3582.01,348.48,321.96,19.33,0000 0000 0000 0000 000000
2013-10-05 00:20:13,0.00,0.23,0.00,20.42,23.44,26.20,5.98,29.58,1005.87,2062.99,3470.08,3301.99,3582.02,349.58,322.73,19.33,0000 0000 0000 0000 000000
2013-10-05 00:21:13,0.00,0.23,0.00,20.43,23.44,26.18,5.93,29.50,1005.87,2062.99,3470.08,3301.99,3582.02,349.65,323.07,19.34,0000 0000 0000 0000 000000
2013-10-05 00:22:14,0.00,0.23,0.00,20.44,23.44,26.14,6.02,29.63,1005.86,2062.99,3470.06,3301.98,3582.02,350.29,323.60,19.35,0000 0000 0000 0000 000000
2013-10-05 00:23:14,0.00,0.23,0.00,20.44,23.44,26.16,5.86,29.88,1005.86,2062.99,3470.03,3301.99,3582.00,349.36,322.93,19.35,0000 0000 0000 0000 000000
2013-10-05 00:24:14,0.00,0.23,0.00,20.44,23.45,26.09,6.04,29.58,1005.87,2062.99,3470.02,3301.96,3582.00,349.53,322.90,19.36,0000 0000 0000 0000 000000
2013-10-05 00:25:15,0.00,0.23,0.00,20.44,23.45,26.09,5.89,29.75,1005.87,2063.00,3470.00,3301.94,3582.00,349.79,323.15,19.36,0000 0000 0000 0000 000000
2013-10-05 00:26:15,0.01,0.23,0.00,20.44,23.45,26.10,6.03,29.67,1005.86,2063.00,3470.00,3301.95,3582.00,350.56,323.85,19.37,0000 0000 0000 0000 000000
2013-10-05 00:27:15,0.00,0.23,0.00,20.44,23.45,26.06,5.86,29.54,1005.87,2063.00,3470.00,3301.89,3582.00,350.16,323.32,19.38,0000 0000 0000 0000 000000
2013-10-05 00:28:15,0.01,0.23,0.00,20.44,23.45,26.07,5.97,29.79,1005.86,2063.00,3470.00,3301.89,3582.00,349.56,323.30,19.38,0000 0000 0000 0000 000000
2013-10-05 00:29:15,0.00,0.23,0.00,20.44,23.45,26.09,5.90,29.67,1005.87,2063.00,3470.00,3301.90,3582.00,349.01,322.42,19.39,0000 0000 0000 0000 000000
2013-10-05 00:30:16,0.00,0.23,0.00,20.44,23.45,26.06,5.92,29.58,1005.86,2063.00,3470.00,3301.90,3582.00,349.49,323.01,19.39,0000 0000 0000 0000 000000
2013-10-05 00:31:16,0.00,0.23,0.00,20.45,23.45,26.07,5.90,29.83,1005.87,2063.00,3470.00,3301.82,3582.00,350.00,323.29,19.40,0000 0000 0000 0000 000000
2013-10-05 00:32:16,0.02,0.23,0.00,20.46,23.45,26.08,6.09,29.75,1005.87,2063.00,3469.99,3301.61,3582.00,351.56,324.68,19.40,0000 0000 0000 0000 000000
2013-10-05 00:33:16,0.05,0.23,0.00,20.47,23.45,26.05,5.79,29.63,1005.87,2063.00,3469.97,3301.40,3581.97,348.56,321.60,19.41,0000 0000 0000 0000 000000
2013-10-05 00:34:17,0.04,0.23,0.00,20.47,23.45,26.11,6.02,29.63,1005.87,2063.00,3469.96,3301.32,3581.98,349.93,322.88,19.42,0000 0000 0000 0000 000000
2013-10-05 00:35:17,0.01,0.23,0.00,20.47,23.45,26.14,6.07,29.67,1005.86,2063.00,3469.97,3301.38,3581.98,350.53,323.79,19.42,0000 0000 0000 0000 000000
2013-10-05 00:36:17,0.00,0.23,0.00,20.46,23.45,26.21,6.01,29.71,1005.87,2063.01,3469.97,3301.45,3581.99,351.43,324.78,19.43,0000 0000 0000 0000 000000
2013-10-05 00:37:17,0.00,0.23,0.00,20.46,23.45,26.24,5.80,29.54,1005.86,2063.00,3469.98,3301.38,3581.98,349.27,322.64,19.43,0000 0000 0000 0000 000000
2013-10-05 00:38:17,0.00,0.23,0.00,20.45,23.45,26.25,6.02,30.00,1005.87,2063.00,3469.97,3301.28,3581.93,349.62,322.97,19.44,0000 0000 0000 0000 000000
2013-10-05 00:39:18,0.02,0.23,0.00,20.47,23.45,26.10,5.92,29.67,1005.86,2063.00,3469.93,3301.13,3581.81,350.63,323.97,19.45,0000 0000 0000 0000 000000
2013-10-05 00:40:18,0.04,0.23,0.00,20.47,23.45,26.09,5.92,29.92,1005.81,2063.00,3469.92,3301.08,3581.78,348.37,322.30,19.45,0000 0000 0000 0000 000000
2013-10-05 00:41:18,0.02,0.23,0.00,20.48,23.45,26.10,5.89,29.92,1005.84,2063.00,3469.75,3301.09,3581.76,348.61,321.99,19.46,0000 0000 0000 0000 000000
2013-10-05 00:42:18,0.03,0.23,0.00,20.49,23.46,26.13,5.98,29.79,1005.77,2063.00,3469.39,3301.04,3581.55,350.85,324.04,19.46,0000 0000 0000 0000 000000
2013-10-05 00:43:19,0.08,0.23,0.00,20.49,23.46,26.18,6.01,29.79,1005.74,2063.00,3469.17,3301.01,3581.32,351.02,323.91,19.47,0000 0000 0000 0000 000000
2013-10-05 00:44:19,0.05,0.23,0.00,20.49,23.47,26.19,5.87,29.63,1005.67,2063.00,3469.07,3301.00,3581.16,349.69,322.75,19.47,0000 0000 0000 0000 000000
2013-10-05 00:45:19,0.02,0.23,0.00,20.49,23.47,26.12,6.01,29.54,1005.61,2063.00,3469.04,3301.00,3581.10,351.16,324.27,19.48,0000 0000 0000 0000 000000
2013-10-05 00:46:19,0.01,0.23,0.00,20.50,23.47,26.14,5.98,29.83,1005.59,2063.00,3469.02,3301.00,3581.05,348.86,322.68,19.49,0000 0000 0000 0000 000000
2013-10-05 00:47:20,0.01,0.23,0.00,20.50,23.47,26.06,5.87,29.67,1005.68,2063.00,3469.00,3301.00,3581.03,349.71,322.94,19.49,0000 0000 0000 0000 000000
2013-10-05 00:48:20,0.00,0.23,0.00,20.51,23.47,26.13,6.02,29.92,1005.62,2063.00,3469.00,3301.00,3581.01,349.21,322.47,19.50,0000 0000 0000 0000 000000
2013-10-05 00:49:20,0.00,0.23,0.00,20.52,23.47,26.13,5.92,29.63,1005.76,2063.00,3469.00,3301.00,3581.01,350.77,323.92,19.50,0000 0000 0000 0000 000000
2013-10-05 00:50:20,0.00,0.23,0.00,20.52,23.47,26.21,5.92,29.67,1005.79,2063.00,3469.00,3301.00,3581.00,349.98,323.32,19.51,0000 0000 0000 0000 000000
2013-10-05 00:51:21,0.00,0.23,0.00,20.52,23.47,26.27,6.11,29.71,1005.77,2063.00,3469.00,3301.00,3581.01,350.45,323.79,19.52,0000 0000 0000 0000 000000
2013-10-05 00:52:21,0.00,0.23,0.00,20.52,23.47,26.21,5.96,29.71,1005.76,2063.00,3469.00,3300.99,3581.00,349.59,322.84,19.52,0000 0000 0000 0000 000000
2013-10-05 00:53:21,0.00,0.23,0.00,20.53,23.47,26.22,5.99,29.58,1005.73,2063.00,3469.00,3300.99,3581.00,350.15,323.81,19.53,0000 0000 0000 0000 000000
2013-10-05 00:54:21,0.00,0.23,0.00,20.53,23.47,26.15,5.83,29.58,1005.75,2063.00,3469.00,3300.99,3581.01,350.04,323.23,19.53,0000 0000 0000 0000 000000
2013-10-05 00:55:22,0.00,0.23,0.00,20.54,23.47,26.19,5.82,29.58,1005.81,2063.00,3468.98,3300.98,3581.00,349.36,322.62,19.54,0000 0000 0000 0000 000000
2013-10-05 00:56:22,0.00,0.23,0.00,20.55,23.47,26.23,5.99,29.58,1005.79,2063.00,3468.98,3300.98,3581.00,350.68,324.11,19.55,0000 0000 0000 0000 000000
2013-10-05 00:57:22,0.00,0.23,0.00,20.55,23.47,26.22,5.87,29.67,1005.65,2063.00,3468.97,3300.98,3581.00,349.60,323.18,19.55,0000 0000 0000 0000 000000
2013-10-05 00:58:22,0.00,0.23,0.00,20.55,23.48,26.20,5.91,29.63,1005.59,2063.00,3468.92,3300.99,3580.99,350.32,323.42,19.56,0000 0000 0000 0000 000000
2013-10-05 00:59:23,0.01,0.23,0.00,20.56,23.48,26.22,6.09,29.58,1005.56,2063.00,3468.79,3300.97,3580.97,349.89,323.08,19.56,0000 0000 0000 0000 000000
2013-10-05 01:00:23,0.02,0.23,0.00,20.56,23.49,26.20,5.93,29.63,1005.53,2063.00,3468.64,3300.92,3580.98,351.05,324.05,19.57,0000 0000 0000 0000 000000
2013-10-05 01:01:23,0.03,0.23,0.00,20.57,23.49,26.17,6.08,29.63,1005.48,2063.00,3468.41,3300.87,3580.98,349.99,323.06,19.57,0000 0000 0000 0000 000000
2013-10-05 01:02:23,0.03,0.23,0.00,20.58,23.49,26.20,6.10,29.54,1005.49,2063.00,3468.26,3300.86,3580.98,350.88,323.50,19.58,0000 0000 0000 0000 000000
2013-10-05 01:03:24,0.01,0.23,0.00,20.59,23.50,26.27,5.93,29.67,1005.55,2063.00,3468.22,3300.82,3580.97,349.03,322.17,19.59,0000 0000 0000 0000 000000
2013-10-05 01:04:24,0.01,0.23,0.00,20.59,23.50,26.17,6.01,29.50,1005.49,2063.00,3468.14,3300.81,3580.95,350.45,323.25,19.59,0000 0000 0000 0000 000000
2013-10-05 01:05:24,0.02,0.23,0.00,20.59,23.50,26.09,5.98,29.71,1005.57,2063.00,3468.12,3300.74,3580.98,350.87,323.87,19.60,0000 0000 0000 0000 000000
2013-10-05 01:06:25,0.02,0.23,0.00,20.59,23.50,26.17,6.00,29.71,1005.62,2063.00,3468.09,3300.54,3580.96,349.87,322.96,19.60,0000 0000 0000 0000 000000
2013-10-05 01:07:25,0.04,0.23,0.00,20.60,23.50,26.16,5.98,29.50,1005.61,2063.00,3468.03,3300.40,3580.94,349.39,322.51,19.61,0000 0000 0000 0000 000000
2013-10-05 01:08:25,0.03,0.23,0.00,20.61,23.50,26.13,5.92,29.58,1005.66,2063.00,3468.01,3300.29,3580.94,350.02,323.10,19.62,0000 0000 0000 0000 000000
2013-10-05 01:09:25,0.03,0.23,0.00,20.62,23.50,26.10,5.97,29.42,1005.71,2063.00,3468.01,3300.13,3580.93,350.82,323.85,19.62,0000 0000 0000 0000 000000
2013-10-05 01:10:26,0.03,0.23,0.00,20.62,23.50,26.20,5.93,29.50,1005.71,2063.00,3468.00,3300.06,3580.89,350.39,323.44,19.63,0000 0000 0000 0000 000000
2013-10-05 01:11:26,0.01,0.23,0.00,20.62,23.50,26.25,5.90,29.58,1005.77,2063.00,3467.99,3300.08,3580.72,350.07,323.17,19.63,0000 0000 0000 0000 000000
2013-10-05 01:12:26,0.02,0.23,0.00,20.62,23.52,26.20,5.87,29.67,1005.80,2063.00,3467.98,3300.04,3580.57,349.19,322.65,19.64,0000 0000 0000 0000 000000
2013-10-05 01:13:26,0.01,0.23,0.00,20.62,23.52,26.22,5.90,29.75,1005.82,2063.00,3467.98,3300.02,3580.55,350.31,323.22,19.64,0000 0000 0000 0000 000000
2013-10-05 01:14:26,0.01,0.23,0.00,20.63,23.52,26.21,6.02,29.58,1005.84,2063.00,3467.92,3300.00,3580.24,350.48,323.57,19.65,0000 0000 0000 0000 000000
2013-10-05 01:15:27,0.03,0.23,0.00,20.64,23.52,26.23,6.02,29.58,1005.86,2063.00,3467.83,3300.00,3580.12,350.75,323.80,19.66,0000 0000 0000 0000 000000
2013-10-05 01:16:27,0.03,0.23,0.00,20.64,23.52,26.18,5.91,29.71,1005.85,2062.99,3467.54,3300.00,3580.05,349.39,322.58,19.66,0000 0000 0000 0000 000000
2013-10-05 01:17:27,0.02,0.23,0.00,20.66,23.52,26.17,5.92,29.83,1005.84,2062.99,3467.36,3300.00,3580.03,349.71,322.82,19.67,0000 0000 0000 0000 000000
2013-10-05 01:18:27,0.02,0.23,0.00,20.65,23.52,26.23,6.10,29.58,1005.85,2062.99,3467.24,3300.00,3580.02,350.56,323.61,19.67,0000 0000 0000 0000 000000
2013-10-05 01:19:28,0.01,0.23,0.00,20.66,23.52,26.28,5.96,29.54,1005.83,2062.99,3467.15,3300.00,3580.01,350.44,323.44,19.68,0000 0000 0000 0000 000000
2013-10-05 01:20:28,0.01,0.23,0.00,20.67,23.52,26.31,5.93,29.71,1005.79,2062.99,3467.13,3300.00,3580.01,349.25,322.32,19.69,0000 0000 0000 0000 000000
2013-10-05 01:21:28,0.00,0.23,0.00,20.68,23.52,26.28,6.12,29.46,1005.73,2062.99,3467.09,3300.00,3580.02,350.09,323.33,19.69,0000 0000 0000 0000 000000
2013-10-05 01:22:28,0.00,0.23,0.00,20.68,23.52,26.31,5.93,29.63,1005.77,2062.99,3467.04,3300.00,3580.00,349.74,322.80,19.70,0000 0000 0000 0000 000000
2013-10-05 01:23:28,0.00,0.23,0.00,20.68,23.53,26.27,5.95,29.63,1005.74,2062.99,3467.01,3299.99,3580.00,349.26,322.36,19.70,0000 0000 0000 0000 000000
2013-10-05 01:24:29,0.00,0.23,0.00,20.69,23.53,26.32,5.96,29.71,1005.63,2062.99,3467.00,3299.97,3580.00,350.01,323.37,19.71,0000 0000 0000 0000 000000
2013-10-05 01:25:29,0.00,0.23,0.00,20.70,23.54,26.22,6.01,29.83,1005.57,2062.99,3467.00,3299.97,3580.00,350.60,323.44,19.72,0000 0000 0000 0000 000000
2013-10-05 01:26:29,0.00,0.23,0.00,20.70,23.54,26.27,5.98,29.54,1005.61,2062.99,3467.00,3299.95,3580.00,349.51,322.52,19.72,0000 0000 0000 0000 000000
2013-10-05 01:27:29,0.00,0.23,0.00,20.70,23.54,26.25,5.86,29.75,1005.61,2062.99,3467.00,3299.94,3580.00,348.60,321.68,19.73,0000 0000 0000 0000 000000
2013-10-05 01:28:30,0.01,0.23,0.00,20.70,23.55,26.31,5.97,29.54,1005.63,2062.99,3466.99,3299.90,3579.98,350.06,323.03,19.73,0000 0000 0000 0000 000000
2013-10-05 01:29:30,0.01,0.23,0.00,20.72,23.55,26.32,6.08,29.79,1005.65,2062.98,3466.98,3299.81,3579.98,350.87,323.76,19.74,0000 0000 0000 0000 000000
2013-10-05 01:30:30,0.01,0.23,0.00,20.72,23.55,26.22,5.98,29.63,1005.68,2062.99,3466.99,3299.68,3579.96,349.76,322.75,19.74,0000 0000 0000 0000 000000
2013-10-05 01:31:31,0.03,0.23,0.00,20.72,23.55,26.29,5.92,29.63,1005.71,2062.99,3466.97,3299.52,3579.97,350.28,323.23,19.75,0000 0000 0000 0000 000000
2013-10-05 01:32:31,0.03,0.23,0.00,20.72,23.55,26.31,5.95,29.67,1005.68,2062.98,3466.93,3299.35,3579.96,349.05,322.09,19.76,0000 0000 0000 0000 000000
2013-10-05 01:33:31,0.03,0.23,0.00,20.72,23.55,26.28,5.88,29.33,1005.67,2062.99,3466.92,3299.19,3579.92,350.41,323.35,19.76,0000 0000 0000 0000 000000
2013-10-05 01:34:31,0.03,0.23,0.00,20.72,23.55,26.30,5.91,29.54,1005.68,2062.98,3466.93,3299.17,3579.94,349.93,322.40,19.77,0000 0000 0000 0000 000000
2013-10-05 01:35:32,-0.00,0.23,0.00,20.72,23.55,26.37,6.05,29.54,1005.65,2062.99,3466.96,3299.17,3579.94,350.27,323.31,19.77,0000 0000 0000 0000 000000
2013-10-05 01:36:32,0.01,0.23,0.00,20.73,23.56,26.34,5.95,29.54,1005.67,2062.96,3466.86,3299.11,3579.75,349.89,322.64,19.78,0000 0000 0000 0000 000000
2013-10-05 01:37:32,0.04,0.24,0.00,20.73,23.57,26.38,5.98,29.50,1005.65,2062.98,3466.71,3299.04,3579.59,350.46,323.69,19.79,0000 0000 0000 0000 000000
2013-10-05 01:38:32,0.04,0.24,0.00,20.74,23.57,26.35,5.92,29.58,1005.70,2062.98,3466.49,3299.05,3579.49,350.36,322.54,19.79,0000 0000 0000 0000 000000
2013-10-05 01:39:32,0.05,0.24,0.00,20.76,23.57,26.36,5.94,29.46,1005.67,2062.98,3466.29,3299.03,3579.41,350.91,323.77,19.80,0000 0000 0000 0000 000000
2013-10-05 01:40:33,0.03,0.24,0.00,20.76,23.57,26.32,5.82,29.67,1005.65,2062.99,3466.31,3299.04,3579.47,349.20,322.59,19.80,0000 0000 0000 0000 000000
2013-10-05 01:41:33,0.01,0.24,0.00,20.76,23.57,26.33,5.94,29.79,1005.68,2062.98,3466.18,3299.04,3579.32,350.13,322.96,19.81,0000 0000 0000 0000 000000
2013-10-05 01:42:33,0.01,0.24,0.00,20.76,23.57,26.34,5.81,29.83,1005.65,2062.99,3466.10,3299.01,3579.25,349.10,322.24,19.81,0000 0000 0000 0000 000000
2013-10-05 01:43:33,0.02,0.24,0.00,20.77,23.57,26.28,5.88,30.00,1005.63,2062.98,3466.07,3299.00,3579.20,349.91,322.66,19.82,0000 0000 0000 0000 000000
2013-10-05 01:44:34,0.01,0.24,0.00,20.77,23.57,26.41,6.01,29.67,1005.65,2062.99,3466.03,3299.00,3579.11,350.66,323.51,19.83,0000 0000 0000 0000 000000
2013-10-05 01:45:34,0.01,0.24,0.00,20.78,23.58,26.42,5.90,29.71,1005.61,2062.99,3466.02,3299.00,3579.06,349.52,322.69,19.83,0000 0000 0000 0000 000000
2013-10-05 01:46:34,0.01,0.24,0.00,20.77,23.59,26.38,6.05,29.58,1005.59,2062.97,3466.00,3299.00,3579.03,350.78,323.79,19.84,0000 0000 0000 0000 000000
2013-10-05 01:47:35,-0.01,0.24,0.00,20.77,23.59,26.35,5.90,29.58,1005.59,2062.97,3466.00,3299.00,3579.01,349.29,322.23,19.84,0000 0000 0000 0000 000000
2013-10-05 01:48:35,0.00,0.24,0.00,20.79,23.59,26.43,5.94,29.83,1005.55,2062.99,3466.02,3299.00,3579.00,349.38,322.28,19.85,0000 0000 0000 0000 000000
2013-10-05 01:49:35,0.00,0.24,0.00,20.79,23.60,26.34,5.94,29.58,1005.57,2062.97,3466.00,3299.00,3579.00,349.88,322.74,19.86,0000 0000 0000 0000 000000
2013-10-05 01:50:35,-0.01,0.24,0.00,20.79,23.60,26.37,5.87,29.79,1005.53,2062.96,3466.00,3298.99,3579.00,349.00,321.92,19.86,0000 0000 0000 0000 000000
2013-10-05 01:51:35,0.00,0.24,0.00,20.81,23.60,26.38,5.79,29.54,1005.55,2062.95,3466.00,3298.96,3579.00,348.35,321.31,19.87,0000 0000 0000 0000 000000
2013-10-05 01:52:36,-0.00,0.24,0.00,20.82,23.60,26.40,5.88,29.71,1005.52,2062.95,3466.00,3298.97,3579.00,349.01,321.90,19.87,0000 0000 0000 0000 000000
2013-10-05 01:53:36,-0.02,0.24,0.00,20.82,23.60,26.45,5.99,29.50,1005.56,2062.95,3465.99,3298.94,3579.00,350.68,323.20,19.88,0000 0000 0000 0000 000000
2013-10-05 01:54:36,0.02,0.24,0.00,20.82,23.61,26.44,5.89,29.50,1005.62,2062.98,3465.99,3298.93,3579.00,349.81,322.60,19.89,0000 0000 0000 0000 000000
2013-10-05 01:55:36,0.01,0.24,0.00,20.82,23.62,26.46,5.88,29.33,1005.69,2062.96,3465.99,3298.94,3578.98,349.78,322.83,19.89,0000 0000 0000 0000 000000
2013-10-05 01:56:37,-0.01,0.24,0.00,20.83,23.62,26.44,5.97,29.67,1005.68,2062.96,3465.98,3298.92,3578.97,349.17,321.89,19.90,0000 0000 0000 0000 000000
2013-10-05 01:57:37,0.01,0.24,0.00,20.84,23.62,26.42,5.88,29.50,1005.72,2062.97,3465.98,3298.90,3578.98,349.72,322.81,19.90,0000 0000 0000 0000 000000
2013-10-05 01:58:37,0.01,0.24,0.00,20.84,23.62,26.43,5.93,29.50,1005.75,2062.97,3465.96,3298.87,3578.99,349.68,322.56,19.91,0000 0000 0000 0000 000000
2013-10-05 01:59:37,0.00,0.24,0.00,20.84,23.62,26.45,5.88,29.63,1005.67,2062.98,3465.98,3298.90,3578.99,349.86,322.70,19.91,0000 0000 0000 0000 000000
2013-10-05 02:00:37,-0.01,0.24,0.00,20.86,23.62,26.50,6.03,29.67,1005.72,2062.98,3465.92,3298.87,3578.99,350.41,323.21,19.92,0000 0000 0000 0000 000000
2013-10-05 02:01:37,0.03,0.24,0.00,20.85,23.63,26.52,5.99,29.63,1005.75,2062.96,3465.78,3298.62,3578.97,349.97,322.92,19.93,0000 0000 0000 0000 000000
2013-10-05 02:02:38,0.06,0.24,0.00,20.86,23.64,26.48,5.75,29.63,1005.68,2062.96,3465.56,3298.48,3578.92,348.63,321.76,19.93,0000 0000 0000 0000 000000
2013-10-05 02:03:38,0.03,0.24,0.00,20.87,23.64,26.47,5.90,29.54,1005.65,2062.93,3465.37,3298.35,3578.88,349.72,322.54,19.94,0000 0000 0000 0000 000000
2013-10-05 02:04:38,0.06,0.24,0.00,20.87,23.64,26.50,6.00,29.46,1005.68,2062.90,3465.17,3298.15,3578.67,350.76,323.61,19.94,0000 0000 0000 0000 000000
2013-10-05 02:05:39,0.03,0.24,0.00,20.87,23.65,26.34,6.02,29.50,1005.66,2062.80,3465.07,3298.05,3578.40,350.18,322.96,19.95,0000 0000 0000 0000 000000
2013-10-05 02:06:39,0.00,0.24,0.00,20.87,23.65,26.46,5.93,29.67,1005.59,2062.76,3465.03,3298.02,3578.21,349.86,322.64,19.96,0000 0000 0000 0000 000000
2013-10-05 02:07:39,0.03,0.24,0.00,20.89,23.65,26.50,5.87,29.67,1005.63,2062.77,3465.01,3298.01,3578.24,349.31,321.56,19.96,0000 0000 0000 0000 000000
2013-10-05 02:08:39,-0.03,0.24,0.00,20.89,23.65,26.48,5.83,29.50,1005.59,2062.79,3465.00,3298.00,3578.16,349.58,322.36,19.97,0000 0000 0000 0000 000000
2013-10-05 02:09:39,0.05,0.24,0.00,20.90,23.65,26.55,5.94,29.50,1005.63,2062.86,3465.00,3298.01,3578.13,350.99,323.66,19.97,0000 0000 0000 0000 000000
2013-10-05 02:10:40,0.04,0.24,0.00,20.90,23.67,26.56,6.09,29.46,1005.69,2062.83,3465.00,3298.00,3578.07,351.02,323.71,19.98,0000 0000 0000 0000 000000
2013-10-05 02:11:40,-0.03,0.24,0.00,20.92,23.67,26.45,5.85,29.63,1005.69,2062.68,3465.00,3298.00,3578.04,348.99,321.83,19.98,0000 0000 0000 0000 000000
2013-10-05 02:12:40,-0.09,0.24,0.00,20.92,23.67,26.42,6.00,29.67,1005.71,2062.63,3465.00,3298.00,3578.02,350.33,323.06,19.99,0000 0000 0000 0000 000000
2013-10-05 02:13:40,-0.02,0.24,0.00,20.92,23.67,26.51,6.01,29.46,1005.74,2062.72,3465.00,3298.00,3578.03,350.63,323.35,20.00,0000 0000 0000 0000 000000
2013-10-05 02:14:41,0.04,0.24,0.00,20.92,23.67,26.58,5.92,29.63,1005.77,2062.72,3465.00,3298.00,3578.02,348.69,321.56,20.00,0000 0000 0000 0000 000000
2013-10-05 02:15:41,0.02,0.24,0.00,20.93,23.67,26.51,5.89,29.71,1005.81,2062.66,3465.00,3298.00,3578.02,349.17,322.02,20.01,0000 0000 0000 0000 000000
2013-10-05 02:16:41,-0.03,0.24,0.00,20.94,23.68,26.61,5.97,29.54,1005.79,2062.64,3465.00,3298.00,3578.01,350.16,322.63,20.01,0000 0000 0000 0000 000000
2013-10-05 02:17:41,-0.05,0.24,0.00,20.93,23.69,26.63,5.95,29.67,1005.80,2062.57,3464.99,3298.00,3578.02,349.62,322.68,20.02,0000 0000 0000 0000 000000
2013-10-05 02:18:41,-0.04,0.24,0.00,20.94,23.70,26.60,5.89,29.46,1005.82,2062.42,3464.99,3297.99,3578.00,349.88,322.89,20.03,0000 0000 0000 0000 000000
2013-10-05 02:19:42,-0.11,0.24,0.00,20.95,23.70,26.60,5.88,29.75,1005.86,2062.26,3464.92,3297.98,3578.00,349.27,322.56,20.03,0000 0000 0000 0000 000000
2013-10-05 02:20:42,-0.04,0.24,0.00,20.96,23.70,26.64,5.98,29.58,1005.86,2062.30,3464.82,3297.98,3578.00,350.52,323.38,20.04,0000 0000 0000 0000 000000
2013-10-05 02:21:42,-0.02,0.24,0.00,20.97,23.70,26.53,6.01,29.50,1005.86,2062.18,3464.67,3297.97,3578.00,349.72,322.47,20.04,0000 0000 0000 0000 000000
2013-10-05 02:22:42,-0.03,0.24,0.00,20.98,23.70,26.51,5.93,29.83,1005.86,2062.26,3464.57,3297.96,3578.00,350.05,322.79,20.05,0000 0000 0000 0000 000000
2013-10-05 02:23:43,0.03,0.24,0.00,20.98,23.71,26.59,5.93,29.58,1005.85,2062.18,3464.36,3297.92,3577.99,349.82,322.24,20.05,0000 0000 0000 0000 000000
2013-10-05 02:24:43,0.02,0.24,0.00,20.98,23.72,26.62,6.04,29.29,1005.86,2062.15,3464.20,3297.90,3577.97,351.59,324.08,20.06,0000 0000 0000 0000 000000
2013-10-05 02:25:43,0.00,0.24,0.00,20.98,23.72,26.61,5.96,29.63,1005.87,2062.13,3464.10,3297.76,3577.96,350.16,322.89,20.07,0000 0000 0000 0000 000000
2013-10-05 02:26:43,0.00,0.24,0.00,21.00,23.72,26.71,5.97,29.75,1005.87,2062.09,3464.04,3297.71,3577.91,350.80,323.66,20.07,0000 0000 0000 0000 000000
2013-10-05 02:27:43,0.01,0.24,0.00,21.00,23.72,26.64,5.88,29.63,1005.87,2062.13,3464.03,3297.57,3577.94,349.93,322.42,20.08,0000 0000 0000 0000 000000
2013-10-05 02:28:43,0.04,0.24,0.00,21.01,23.72,26.58,5.92,29.75,1005.87,2062.10,3464.04,3297.37,3577.93,350.59,322.90,20.08,0000 0000 0000 0000 000000
2013-10-05 02:29:44,0.03,0.24,0.00,21.01,23.73,26.60,5.98,29.71,1005.87,2062.08,3464.02,3297.24,3577.84,350.96,323.59,20.09,0000 0000 0000 0000 000000
2013-10-05 02:30:44,0.02,0.24,0.00,21.01,23.74,26.66,6.02,29.46,1005.86,2062.05,3464.02,3297.12,3577.54,349.85,322.84,20.10,0000 0000 0000 0000 000000
2013-10-05 02:31:44,0.03,0.24,0.00,21.02,23.75,26.62,5.94,29.42,1005.87,2062.05,3464.00,3297.08,3577.41,350.20,323.26,20.10,0000 0000 0000 0000 000000
2013-10-05 02:32:44,0.02,0.24,0.00,21.02,23.75,26.64,5.94,29.67,1005.87,2062.03,3464.00,3297.05,3577.30,350.29,322.71,20.11,0000 0000 0000 0000 000000
2013-10-05 02:33:44,-0.00,0.24,0.00,21.04,23.75,26.58,5.91,29.71,1005.86,2062.03,3464.00,3297.03,3577.36,350.84,323.44,20.11,0000 0000 0000 0000 000000
2013-10-05 02:34:44,-0.00,0.24,0.00,21.04,23.75,26.59,5.95,29.54,1005.87,2062.03,3464.00,3297.02,3577.22,349.40,322.13,20.12,0000 0000 0000 0000 000000
2013-10-05 02:35:45,0.02,0.24,0.00,21.04,23.75,26.61,5.97,29.67,1005.87,2062.03,3464.00,3297.02,3577.12,349.06,321.81,20.13,0000 0000 0000 0000 000000
2013-10-05 02:36:45,0.01,0.24,0.00,21.04,23.77,26.61,6.01,29.50,1005.87,2062.02,3464.00,3297.02,3577.11,350.93,323.52,20.13,0000 0000 0000 0000 000000
2013-10-05 02:37:45,0.00,0.24,0.00,21.06,23.77,26.73,5.92,29.71,1005.87,2062.01,3464.00,3297.01,3577.04,349.26,321.98,20.14,0000 0000 0000 0000 000000
2013-10-05 02:38:45,0.00,0.24,0.00,21.07,23.77,26.69,6.00,29.54,1005.87,2062.01,3464.00,3297.00,3577.02,350.28,322.90,20.14,0000 0000 0000 0000 000000
2013-10-05 02:39:45,0.00,0.24,0.00,21.07,23.77,26.70,6.08,29.63,1005.87,2062.01,3464.00,3297.00,3577.02,349.90,322.56,20.15,0000 0000 0000 0000 000000
2013-10-05 02:40:45,0.00,0.24,0.00,21.07,23.77,26.58,5.98,29.75,1005.87,2062.02,3463.96,3297.00,3577.01,350.32,322.94,20.15,0000 0000 0000 0000 000000
2013-10-05 02:41:46,0.02,0.24,0.00,21.09,23.77,26.64,5.88,29.67,1005.87,2062.01,3463.78,3296.99,3577.00,349.36,322.04,20.16,0000 0000 0000 0000 000000
2013-10-05 02:42:46,0.02,0.24,0.00,21.09,23.79,26.64,5.94,29.83,1005.87,2062.01,3463.67,3296.99,3577.00,349.70,322.35,20.17,0000 0000 0000 0000 000000
2013-10-05 02:43:46,0.00,0.24,0.00,21.09,23.79,26.77,5.95,29.96,1005.87,2062.01,3463.65,3296.99,3577.00,349.16,322.22,20.17,0000 0000 0000 0000 000000
2013-10-05 02:44:46,0.00,0.24,0.00,21.10,23.80,26.71,6.05,29.71,1005.87,2062.01,3463.72,3296.99,3577.00,350.48,322.60,20.18,0000 0000 0000 0000 000000
2013-10-05 02:45:46,0.00,0.24,0.00,21.11,23.80,26.73,6.05,29.58,1005.87,2062.00,3463.66,3296.98,3577.00,349.43,322.06,20.18,0000 0000 0000 0000 000000
2013-10-05 02:46:46,0.01,0.24,0.00,21.10,23.80,26.74,5.99,29.63,1005.87,2062.00,3463.44,3296.99,3577.00,349.31,321.95,20.19,0000 0000 0000 0000 000000